Location: Chuathbaluk
(61.5726°N, 159.2454°W)
Time: 16:55:27
(UTC+00:00)

NOAA 15 - Pass Details

Date: 21 January 2021
Orbit: 798 x 812 km, 98.7° (Epoch: 05 March)

Event Time Altitude Azimuth Distance (km) Brightness Sun altitude
Rises 05:41:42 0° 184° (S) 3,304 7.8 -23.7°
Reaches altitude 10° 05:44:09 10° 191° (S) 2,379 7.1 -24.0°
Maximum altitude 05:49:08 43° 262° (W) 1,128 5.8 -24.6°
Drops below altitude 10° 05:54:11 10° 334° (NNW) 2,403 7.4 -25.2°
Sets 05:56:40 0° 341° (NNW) 3,340 8.1 -25.5°
